GW3899 Weather Reports


time (UTC)temp
C
wind
direction
speed
KPH
gust
KPH
rain 1hr
cm
rain 24hr
cm
rain mn
cm
humidity
%
barometer
mb
20260504235037 25 216 9.7 12.9 0.00 0.00 0.00 1 1004.0
20260504234534 26 224 8.0 9.7 0.00 0.00 0.00 1 1004.1
20260504234031 26 184 6.4 8.0 0.00 0.00 0.00 1 1004.0
20260504233526 26 218 11.3 12.9 0.00 0.00 0.00 1 1004.0
20260504233024 26 206 12.9 20.9 0.00 0.00 0.00 1 1004.1
20260504232521 26 199 9.7 11.3 0.00 0.00 0.00 1 1004.0
20260504232018 26 260 16.1 20.9 0.00 0.00 0.00 1 1004.1
20260504231515 26 224 17.7 22.5 0.00 0.00 0.00 1 1004.2
20260504231011 26 179 19.3 24.1 0.00 0.00 0.00 1 1004.1
20260504230508 26 206 9.7 11.3 0.00 0.00 0.00 1 1004.2
20260504230007 26 248 12.9 16.1 0.00 0.00 0.00 1 1004.4
20260504225503 26 167 4.8 8.0 0.00 0.00 0.00 1 1004.3
20260504225000 26 190 16.1 20.9 0.00 0.00 0.00 1 1004.2
20260504224456 26 204 16.1 20.9 0.00 0.00 0.00 1 1004.2
20260504223953 27 215 11.3 16.1 0.00 0.00 0.00 1 1004.1
20260504223450 27 167 14.5 16.1 0.00 0.00 0.00 1 1004.0
20260504222945 27 188 8.0 9.7 0.00 0.00 0.00 1 1004.3
20260504222443 27 220 12.9 14.5 0.00 0.00 0.00 1 1004.2
20260504221941 27 195 20.9 24.1 0.00 0.00 0.00 1 1004.3
20260504221438 27 226 17.7 22.5 0.00 0.00 0.00 1 1004.3
20260504220934 27 233 20.9 37.0 0.00 0.00 0.00 1 1004.1
20260504220431 26 213 11.3 16.1 0.00 0.00 0.00 1 1004.3
20260504215928 26 146 9.7 12.9 0.00 0.00 0.00 1 1004.1
20260504215425 26 186 14.5 20.9 0.00 0.00 0.00 1 1004.2
20260504214921 25 186 6.4 9.7 0.00 0.00 0.00 1 1004.6
20260504214418 26 219 11.3 12.9 0.00 0.00 0.00 1 1004.2
20260504213915 26 232 9.7 14.5 0.00 0.00 0.00 1 1004.3
20260504213410 25 183 20.9 24.1 0.00 0.00 0.00 1 1004.3
20260504212908 26 242 14.5 17.7 0.00 0.00 0.00 1 1004.3
20260504212404 26 224 14.5 17.7 0.00 0.00 0.00 1 1004.3
20260504211902 27 213 12.9 16.1 0.00 0.00 0.00 1 1004.3
20260504211358 27 214 11.3 14.5 0.00 0.00 0.00 1 1004.3
20260504210855 27 209 16.1 24.1 0.00 0.00 0.00 1 1004.4
20260504210352 27 200 9.7 12.9 0.00 0.00 0.00 1 1004.6
20260504205849 26 244 9.7 14.5 0.00 0.00 0.00 1 1004.5
20260504205347 26 213 16.1 20.9 0.00 0.00 0.00 1 1004.6
20260504204845 26 188 11.3 12.9 0.00 0.00 0.00 1 1004.6
20260504204343 26 186 24.1 29.0 0.00 0.00 0.00 1 1004.9
20260504203842 26 201 12.9 16.1 0.00 0.00 0.00 1 1004.8
20260504203339 26 187 14.5 22.5 0.00 0.00 0.00 1 1004.7
20260504202834 26 242 16.1 17.7 0.00 0.00 0.00 1 1005.0
20260504202332 26 202 20.9 25.7 0.00 0.00 0.00 1 1004.9
20260504201828 26 219 14.5 22.5 0.00 0.00 0.00 1 1004.9
20260504201326 26 217 16.1 22.5 0.00 0.00 0.00 1 1004.7
20260504200823 26 181 11.3 11.3 0.00 0.00 0.00 1 1004.7
20260504200320 26 210 14.5 16.1 0.00 0.00 0.00 1 1004.9
20260504195816 26 213 16.1 22.5 0.00 0.00 0.00 1 1004.9
20260504195312 26 211 14.5 14.5 0.00 0.00 0.00 1 1005.1
20260504194809 26 232 12.9 20.9 0.00 0.00 0.00 1 1004.9
20260504194305 26 202 8.0 12.9 0.00 0.00 0.00 1 1004.9
20260504193801 26 183 11.3 14.5 0.00 0.00 0.00 1 1005.4
20260504193259 25 168 8.0 11.3 0.00 0.00 0.00 1 1005.4
20260504192757 25 204 8.0 12.9 0.00 0.00 0.00 1 1005.5
20260504192254 24 223 11.3 12.9 0.00 0.00 0.00 1 1005.5
20260504191753 24 173 16.1 24.1 0.00 0.00 0.00 1 1005.5
20260504191250 24 188 6.4 9.7 0.00 0.00 0.00 1 1005.7
20260504190745 23 204 6.4 9.7 0.00 0.00 0.00 1 1005.7
20260504190242 23 214 6.4 8.0 0.00 0.00 0.00 1 1005.6
20260504185738 22 189 6.4 8.0 0.00 0.00 0.00 1 1005.5
20260504185235 22 159 9.7 12.9 0.00 0.00 0.00 1 1005.4
20260504184731 23 131 4.8 4.8 0.00 0.00 0.00 1 1005.4
20260504184227 23 119 11.3 12.9 0.00 0.00 0.00 1 1006.2
20260504183723 23 188 9.7 11.3 0.00 0.00 0.00 1 1006.3
20260504183220 23 184 4.8 8.0 0.00 0.00 0.00 1 1006.3
20260504182718 23 176 4.8 8.0 0.00 0.00 0.00 1 1006.2
20260504182215 23 221 9.7 11.3 0.00 0.00 0.00 1 1006.3
20260504181713 24 211 8.0 11.3 0.00 0.00 0.00 1 1006.4
20260504181210 24 201 11.3 16.1 0.00 0.00 0.00 1 1005.8
20260504180709 24 178 8.0 11.3 0.00 0.00 0.00 1 1006.0
20260504180207 25 228 9.7 11.3 0.00 0.00 0.00 1 1005.7
20260504175704 25 209 11.3 12.9 0.00 0.00 0.00 1 1005.7
20260504175201 25 201 6.4 8.0 0.00 0.00 0.00 1 1006.0
20260504174659 25 191 16.1 17.7 0.00 0.00 0.00 1 1006.3
20260504174156 25 200 8.0 9.7 0.00 0.00 0.00 1 1006.1
20260504173653 25 203 11.3 14.5 0.00 0.00 0.00 1 1006.3
20260504173150 25 260 16.1 20.9 0.00 0.00 0.00 1 1006.3
20260504172647 25 265 20.9 25.7 0.00 0.00 0.00 1 1006.1
20260504172143 25 197 17.7 25.7 0.00 0.00 0.00 1 1006.6
20260504171639 25 199 17.7 22.5 0.00 0.00 0.00 1 1006.8
20260504171137 25 199 19.3 22.5 0.00 0.00 0.00 1 1006.6
20260504170633 25 235 19.3 22.5 0.00 0.00 0.00 1 1006.6
20260504170131 25 214 12.9 14.5 0.00 0.00 0.00 1 1006.6
20260504151015 21 232 12.9 14.5 0.00 0.00 0.00 1 1006.9
20260504150513 21 202 14.5 17.7 0.00 0.00 0.00 1 1006.7
20260504140939 18 214 19.3 22.5 0.00 0.00 0.00 1 1007.5
20260504140435 18 212 12.9 16.1 0.00 0.00 0.00 1 1007.6
20260504130400 18 174 6.4 8.0 0.00 0.00 0.00 1 1008.1
20260504110247 15 152 4.8 4.8 0.00 0.00 0.00 1 1008.6
20260504100211 16 152 1.6 3.2 0.00 0.00 0.00 1 1009.2
20260504090134 16 176 6.4 8.0 0.00 0.00 0.00 1 1009.2
20260504081604 17 219 6.4 8.0 0.00 0.00 0.00 1 1008.6
20260504081100 17 188 8.0 9.7 0.00 0.00 0.00 1 1008.7
20260504080557 17 164 11.3 14.5 0.00 0.00 0.00 1 1008.7
20260504050404 19 141 6.4 8.0 0.00 0.00 0.00 1 1010.0
20260504045901 19 167 11.3 14.5 0.00 0.00 0.00 1 1010.1
20260504045356 19 173 8.0 9.7 0.00 0.00 0.00 1 1010.2
20260504044853 19 180 8.0 9.7 0.00 0.00 0.00 1 1010.3
20260504044350 19 172 6.4 8.0 0.00 0.00 0.00 1 1010.2
20260504043848 20 200 9.7 11.3 0.00 0.00 0.00 1 1010.4
20260504043344 20 186 11.3 14.5 0.00 0.00 0.00 1 1010.4
20260504042842 20 190 4.8 8.0 0.00 0.00 0.00 1 1010.3
20260504042338 20 164 9.7 16.1 0.00 0.00 0.00 1 1010.5
20260504041834 20 198 9.7 12.9 0.00 0.00 0.00 1 1010.5
20260504041331 20 162 11.3 12.9 0.00 0.00 0.00 1 1010.8
20260504040827 20 187 8.0 9.7 0.00 0.00 0.00 1 1010.4
20260504040325 20 193 14.5 16.1 0.00 0.00 0.00 1 1010.3
20260504035820 20 139 6.4 9.7 0.00 0.00 0.00 1 1010.6
20260504035318 20 196 4.8 8.0 0.00 0.00 0.00 1 1010.5
20260504034815 20 184 8.0 9.7 0.00 0.00 0.00 1 1010.7
20260504034313 20 177 9.7 12.9 0.00 0.00 0.00 1 1010.6
20260504033810 20 124 9.7 14.5 0.00 0.00 0.00 1 1010.8
20260504033307 20 188 8.0 9.7 0.00 0.00 0.00 1 1010.9
20260504032803 20 202 4.8 4.8 0.00 0.00 0.00 1 1010.8
20260504032301 20 158 8.0 11.3 0.00 0.00 0.00 1 1010.8
20260504031757 21 190 9.7 11.3 0.00 0.00 0.00 1 1010.9
20260504031255 21 194 8.0 9.7 0.00 0.00 0.00 1 1010.8
20260504030751 21 166 9.7 14.5 0.00 0.00 0.00 1 1010.9
20260504030248 21 219 12.9 16.1 0.00 0.00 0.00 1 1010.9
20260504025744 21 199 11.3 14.5 0.00 0.00 0.00 1 1010.9
20260504025241 21 193 8.0 12.9 0.00 0.00 0.00 1 1011.0
20260504024733 21 176 6.4 8.0 0.00 0.00 0.00 1 1010.8
20260504024229 21 183 8.0 9.7 0.00 0.00 0.00 1 1010.9
20260504023726 21 198 8.0 11.3 0.00 0.00 0.00 1 1010.9
20260504023222 21 188 4.8 4.8 0.00 0.00 0.00 1 1010.9
20260504022718 21 185 8.0 12.9 0.00 0.00 0.00 1 1010.6
20260504022215 21 155 3.2 3.2 0.00 0.00 0.00 1 1010.7
20260504021712 21 180 4.8 4.8 0.00 0.00 0.00 1 1010.8
20260504021209 21 164 4.8 8.0 0.00 0.00 0.00 1 1010.8
20260504020705 21 185 11.3 12.9 0.00 0.00 0.00 1 1010.6
20260504020201 21 213 8.0 11.3 0.00 0.00 0.00 1 1010.6
20260504015659 21 176 6.4 8.0 0.00 0.00 0.00 1 1010.5
20260504015155 21 184 8.0 9.7 0.00 0.00 0.00 1 1010.7
20260504014650 21 180 8.0 12.9 0.00 0.00 0.00 1 1010.8
20260504014147 21 175 8.0 9.7 0.00 0.00 0.00 1 1010.4
20260504013645 21 196 6.4 8.0 0.00 0.00 0.00 1 1010.4
20260504013142 21 161 4.8 4.8 0.00 0.00 0.00 1 1010.5
20260504012639 22 177 8.0 9.7 0.00 0.00 0.00 1 1010.5
20260504012137 22 196 4.8 4.8 0.00 0.00 0.00 1 1010.4
20260504011633 22 191 6.4 9.7 0.00 0.00 0.00 1 1010.6
20260504011130 22 172 4.8 4.8 0.00 0.00 0.00 1 1010.4
20260504010626 22 169 3.2 3.2 0.00 0.00 0.00 1 1010.4
20260504010122 22 168 3.2 3.2 0.00 0.00 0.00 1 1010.4
20260504005619 22 193 6.4 8.0 0.00 0.00 0.00 1 1010.4
20260504005116 23 197 6.4 9.7 0.00 0.00 0.00 1 1010.4
20260504004614 23 174 4.8 4.8 0.00 0.00 0.00 1 1010.3
20260504004111 23 196 4.8 4.8 0.00 0.00 0.00 1 1010.3
20260504003607 23 189 4.8 8.0 0.00 0.00 0.00 1 1010.3
20260504003103 23 183 6.4 8.0 0.00 0.00 0.00 1 1010.4
20260504002600 23 173 6.4 8.0 0.00 0.00 0.00 1 1010.5
20260504002058 24 160 3.2 3.2 0.00 0.00 0.00 1 1010.4
20260504001555 24 185 4.8 8.0 0.00 0.00 0.00 1 1010.4
20260504001051 25 185 4.8 4.8 0.00 0.00 0.00 1 1010.4
20260504000548 25 202 4.8 8.0 0.00 0.00 0.00 1 1010.3
20260504000046 25 143 4.8 8.0 0.00 0.00 0.00 1 1010.5
20260503235544 25 186 6.4 8.0 0.00 0.00 0.00 1 1010.3